HULIANWANG DIGUI-139

导读 | 豆包AI

“HULIANWANG DIGUI-139”是中国于2026年1月13日发射的低轨卫星,属低轨互联网星座部署范畴,承载卫星互联网组网任务。低轨卫星互联网依托近地轨道,可实现全球无缝网络覆盖,弥补地面网络盲区,服务全球通信、物联网等领域,推动天地一体化信息网络建设,赋能数字经济发展。

基本信息
目录编号:
67437
目录名称:
HULIANWANG DIGUI-139
国际标识:
2026-007C
轨道中心:
EARTH
卫星名称:
HULIANWANG DIGUI-139
卫星全名:
HULIANWANG DIGUI-139
卫星状态:
在轨 (已飞行132 天)
发射日期:
2026-01-13 UTC
国别 :
中国 (CN)
星等 :
--
轨道信息
数据来源 国际轨道数据 AOE轨道数据
星历时间 2026-05-24T10:33:44+0800
1天前
查看轨道信息
2026-05-23T04:00:00+0800
2天前
查看轨道信息
半长轴 7527.513km 7527.461km
偏心率 0.0000895 0.0001628
轨道倾角 50.001° 50.000°
近地点辐角 271.929° 248.555°
升交点赤经 172.226° 176.798°
平近点角 88.148° 133.760°
近地点 1148.702km 1148.098km
远地点 1150.05km 1150.55km
周期 108.327分钟 108.326分钟
每日圈数 13.293077 13.293214
详细信息
使用方式:
暂无
2D轨道图
3D轨道图
轨道高度分析图
轨道倾角分析图
轨道综合分析图
查看轨道综合分析图